PCM342 MMTJ-KSBA

Flight info

Callsign PCM342
Flight time 1h 16m
Altitude 8000
Route TIJ4B TIJ DCT PGY DCT MZB V25 PACIF V27 VTU DCT DEANO DCT KWANG
Aircraft C208/L-SDF/C

Departure

Time 2026-05-07 21:26
Airport General Abelardo L. Rodriguez International Airport (MMTJ)

Arrival

Time 2026-05-07 22:43
Airport Santa Barbara Municipal Airport (KSBA)
Time Latitude Longitude Altitude Speed Heading
2026-05-07 21:20 32.54418 -116.96546 497 ft 0 kts 98°
2026-05-07 21:24 32.54405 -116.96507 497 ft 12 kts 132°
2026-05-07 21:24 32.54286 -116.96480 494 ft 23 kts 191°
2026-05-07 21:24 32.54194 -116.96398 494 ft 20 kts 99°
2026-05-07 21:25 32.54168 -116.96201 492 ft 25 kts 99°
2026-05-07 21:25 32.54072 -116.96157 493 ft 12 kts 186°
2026-05-07 21:25 32.54001 -116.96197 494 ft 15 kts 264°
2026-05-07 21:25 32.54029 -116.96414 492 ft 49 kts 279°
2026-05-07 21:26 32.54109 -116.96996 491 ft 90 kts 279°
2026-05-07 21:26 32.54212 -116.97777 634 ft 99 kts 278°
2026-05-07 21:26 32.54306 -116.98532 951 ft 89 kts 274°
2026-05-07 21:26 32.54564 -116.99166 1169 ft 94 kts 330°
2026-05-07 21:27 32.55233 -116.99098 1401 ft 102 kts
2026-05-07 21:27 32.55937 -116.98927 1642 ft 104 kts
2026-05-07 21:27 32.56649 -116.98768 1885 ft 106 kts
2026-05-07 21:27 32.57395 -116.98625 2100 ft 111 kts
2026-05-07 21:28 32.58178 -116.98470 2316 ft 116 kts
2026-05-07 21:28 32.58968 -116.98312 2524 ft 116 kts
2026-05-07 21:28 32.59776 -116.98153 2736 ft 120 kts
2026-05-07 21:28 32.60612 -116.98020 2940 ft 122 kts 355°
2026-05-07 21:29 32.61361 -116.98392 3146 ft 117 kts 318°
2026-05-07 21:29 32.61890 -116.99127 3356 ft 118 kts 308°
2026-05-07 21:29 32.62414 -116.99869 3561 ft 117 kts 309°
2026-05-07 21:29 32.62938 -117.00618 3762 ft 118 kts 309°
2026-05-07 21:30 32.63454 -117.01356 3961 ft 119 kts 308°
2026-05-07 21:30 32.63994 -117.02128 4163 ft 120 kts 309°
2026-05-07 21:30 32.64528 -117.02887 4359 ft 119 kts 309°
2026-05-07 21:30 32.65054 -117.03639 4555 ft 117 kts 309°
2026-05-07 21:31 32.65568 -117.04377 4751 ft 114 kts 309°
2026-05-07 21:31 32.66073 -117.05099 4949 ft 113 kts 309°
2026-05-07 21:31 32.66575 -117.05819 5145 ft 113 kts 309°
2026-05-07 21:31 32.67082 -117.06545 5345 ft 115 kts 309°
2026-05-07 21:32 32.67590 -117.07271 5546 ft 115 kts 309°
2026-05-07 21:32 32.68104 -117.08008 5745 ft 115 kts 309°
2026-05-07 21:32 32.68613 -117.08738 5941 ft 115 kts 309°
2026-05-07 21:32 32.69114 -117.09460 6138 ft 115 kts 310°
2026-05-07 21:33 32.69624 -117.10185 6335 ft 114 kts 310°
2026-05-07 21:33 32.70127 -117.10907 6532 ft 113 kts 310°
2026-05-07 21:33 32.70628 -117.11626 6729 ft 113 kts 310°
2026-05-07 21:33 32.71124 -117.12338 6926 ft 112 kts 310°
2026-05-07 21:34 32.71626 -117.13057 7124 ft 114 kts 310°
2026-05-07 21:34 32.72134 -117.13786 7324 ft 114 kts 310°
2026-05-07 21:34 32.72634 -117.14509 7524 ft 113 kts 310°
2026-05-07 21:34 32.73134 -117.15227 7720 ft 112 kts 310°
2026-05-07 21:35 32.73633 -117.15941 7899 ft 112 kts 311°
2026-05-07 21:35 32.74145 -117.16674 7992 ft 122 kts 311°
2026-05-07 21:35 32.74705 -117.17474 8014 ft 133 kts 310°
2026-05-07 21:35 32.75317 -117.18348 8013 ft 141 kts 310°
2026-05-07 21:36 32.75959 -117.19270 8013 ft 147 kts 310°
2026-05-07 21:36 32.76617 -117.20222 8000 ft 151 kts 310°
2026-05-07 21:36 32.77292 -117.21194 7998 ft 154 kts 310°
2026-05-07 21:36 32.77976 -117.22179 8003 ft 154 kts 310°
2026-05-07 21:37 32.78732 -117.23082 7999 ft 154 kts 320°
2026-05-07 21:37 32.79563 -117.23915 7999 ft 159 kts 320°
2026-05-07 21:37 32.80405 -117.24779 8001 ft 161 kts 320°
2026-05-07 21:37 32.81257 -117.25657 7999 ft 163 kts 319°
2026-05-07 21:38 32.82116 -117.26545 7998 ft 164 kts 319°
2026-05-07 21:38 32.82981 -117.27437 8004 ft 165 kts 319°
2026-05-07 21:38 32.83837 -117.28320 8000 ft 165 kts 319°
2026-05-07 21:38 32.84717 -117.29228 7997 ft 164 kts 319°
2026-05-07 21:39 32.85563 -117.30101 7997 ft 163 kts 319°
2026-05-07 21:39 32.86421 -117.30985 7988 ft 163 kts 319°
2026-05-07 21:39 32.87275 -117.31868 7988 ft 162 kts 319°
2026-05-07 21:39 32.88128 -117.32748 7986 ft 162 kts 319°
2026-05-07 21:40 32.88980 -117.33629 7986 ft 162 kts 319°
2026-05-07 21:40 32.89830 -117.34507 7986 ft 161 kts 319°
2026-05-07 21:40 32.90678 -117.35382 7987 ft 161 kts 319°
2026-05-07 21:40 32.91525 -117.36257 7985 ft 161 kts 319°
2026-05-07 21:41 32.92374 -117.37137 7985 ft 162 kts 319°
2026-05-07 21:41 32.93222 -117.38013 7985 ft 162 kts 319°
2026-05-07 21:41 32.94070 -117.38891 7985 ft 161 kts 319°
2026-05-07 21:41 32.94917 -117.39767 7989 ft 162 kts 319°
2026-05-07 21:42 32.95765 -117.40644 7985 ft 161 kts 319°
2026-05-07 21:42 32.96612 -117.41521 7986 ft 161 kts 319°
2026-05-07 21:42 32.97447 -117.42386 7987 ft 161 kts 319°
2026-05-07 21:42 32.98294 -117.43263 7986 ft 161 kts 319°
2026-05-07 21:43 32.99139 -117.44139 7985 ft 161 kts 319°
2026-05-07 21:43 32.99985 -117.45014 7989 ft 161 kts 319°
2026-05-07 21:43 33.00829 -117.45890 7984 ft 161 kts 319°
2026-05-07 21:43 33.01675 -117.46768 7987 ft 161 kts 319°
2026-05-07 21:44 33.02522 -117.47645 7984 ft 161 kts 319°
2026-05-07 21:44 33.03368 -117.48522 7984 ft 161 kts 319°
2026-05-07 21:44 33.04213 -117.49401 7983 ft 162 kts 319°
2026-05-07 21:44 33.05063 -117.50282 7977 ft 162 kts 319°
2026-05-07 21:45 33.05913 -117.51165 7981 ft 162 kts 319°
2026-05-07 21:45 33.06763 -117.52047 7987 ft 162 kts 319°
2026-05-07 21:45 33.07617 -117.52934 7979 ft 162 kts 319°
2026-05-07 21:45 33.08455 -117.53805 7977 ft 162 kts 319°
2026-05-07 21:46 33.09317 -117.54701 7977 ft 162 kts 319°
2026-05-07 21:46 33.10155 -117.55573 7977 ft 162 kts 319°
2026-05-07 21:46 33.11003 -117.56454 7977 ft 162 kts 319°
2026-05-07 21:46 33.11851 -117.57336 7978 ft 162 kts 319°
2026-05-07 21:47 33.12700 -117.58219 7980 ft 162 kts 319°
2026-05-07 21:47 33.13547 -117.59101 7977 ft 161 kts 319°
2026-05-07 21:47 33.14393 -117.59981 7978 ft 161 kts 319°
2026-05-07 21:47 33.15240 -117.60864 7978 ft 162 kts 318°
2026-05-07 21:48 33.16087 -117.61746 7980 ft 162 kts 319°
2026-05-07 21:48 33.16934 -117.62628 7987 ft 162 kts 318°
2026-05-07 21:48 33.17780 -117.63510 7979 ft 161 kts 318°
2026-05-07 21:48 33.18626 -117.64392 7978 ft 161 kts 318°
2026-05-07 21:49 33.19460 -117.65262 7984 ft 161 kts 318°
2026-05-07 21:49 33.20301 -117.66139 7975 ft 161 kts 318°
2026-05-07 21:49 33.21146 -117.67020 7975 ft 161 kts 318°
2026-05-07 21:49 33.21994 -117.67904 7975 ft 161 kts 318°
2026-05-07 21:50 33.22834 -117.68782 7980 ft 161 kts 318°
2026-05-07 21:50 33.23678 -117.69663 7990 ft 160 kts 318°
2026-05-07 21:50 33.24515 -117.70538 7993 ft 160 kts 318°
2026-05-07 21:50 33.25353 -117.71412 7993 ft 161 kts 318°
2026-05-07 21:51 33.26196 -117.72293 7993 ft 161 kts 318°
2026-05-07 21:51 33.27036 -117.73171 7995 ft 161 kts 318°
2026-05-07 21:51 33.27879 -117.74052 7996 ft 161 kts 318°
2026-05-07 21:51 33.28568 -117.75088 7992 ft 161 kts 293°
2026-05-07 21:52 33.28816 -117.76385 8005 ft 160 kts 278°
2026-05-07 21:52 33.28985 -117.77703 8006 ft 161 kts 279°
2026-05-07 21:52 33.29164 -117.79021 8007 ft 161 kts 279°
2026-05-07 21:52 33.29343 -117.80339 8006 ft 161 kts 279°
2026-05-07 21:53 33.29519 -117.81639 8008 ft 160 kts 279°
2026-05-07 21:53 33.29697 -117.82957 8011 ft 160 kts 279°
2026-05-07 21:53 33.29874 -117.84274 8012 ft 160 kts 279°
2026-05-07 21:53 33.30051 -117.85592 8010 ft 161 kts 279°
2026-05-07 21:54 33.30229 -117.86913 8008 ft 161 kts 279°
2026-05-07 21:54 33.30407 -117.88236 8007 ft 161 kts 279°
2026-05-07 21:54 33.30585 -117.89559 8006 ft 161 kts 279°
2026-05-07 21:54 33.30762 -117.90882 8006 ft 161 kts 279°
2026-05-07 21:55 33.30940 -117.92205 8007 ft 161 kts 279°
2026-05-07 21:55 33.31117 -117.93527 8007 ft 161 kts 279°
2026-05-07 21:55 33.31294 -117.94846 8007 ft 161 kts 279°
2026-05-07 21:55 33.31471 -117.96167 8007 ft 161 kts 279°
2026-05-07 21:56 33.31647 -117.97486 8009 ft 161 kts 279°
2026-05-07 21:56 33.31823 -117.98805 8009 ft 161 kts 279°
2026-05-07 21:56 33.32000 -118.00126 8010 ft 161 kts 279°
2026-05-07 21:56 33.32175 -118.01444 8009 ft 161 kts 279°
2026-05-07 21:57 33.32292 -118.02320 8010 ft 161 kts 279°
2026-05-07 21:57 33.32468 -118.03640 8011 ft 160 kts 279°
2026-05-07 21:57 33.32644 -118.04961 8012 ft 160 kts 279°
2026-05-07 21:57 33.32819 -118.06277 8011 ft 160 kts 279°
2026-05-07 21:58 33.32993 -118.07593 8010 ft 160 kts 279°
2026-05-07 21:58 33.33224 -118.09329 8021 ft 159 kts 279°
2026-05-07 21:58 33.33341 -118.10214 8022 ft 159 kts 279°
2026-05-07 21:58 33.33515 -118.11527 8020 ft 160 kts 279°
2026-05-07 21:59 33.33690 -118.12840 8019 ft 160 kts 279°
2026-05-07 21:59 33.33862 -118.14147 8018 ft 160 kts 279°
2026-05-07 21:59 33.34036 -118.15460 8018 ft 160 kts 279°
2026-05-07 21:59 33.34207 -118.16760 8019 ft 160 kts 279°
2026-05-07 22:00 33.34381 -118.18073 8020 ft 160 kts 279°
2026-05-07 22:00 33.34554 -118.19386 8020 ft 160 kts 279°
2026-05-07 22:00 33.34727 -118.20696 8008 ft 160 kts 279°
2026-05-07 22:00 33.34900 -118.22016 8008 ft 160 kts 279°
2026-05-07 22:01 33.35073 -118.23326 8009 ft 160 kts 279°
2026-05-07 22:01 33.35246 -118.24640 8011 ft 160 kts 278°
2026-05-07 22:01 33.35417 -118.25955 8012 ft 160 kts 279°
2026-05-07 22:01 33.35589 -118.27269 8012 ft 160 kts 278°
2026-05-07 22:02 33.35762 -118.28582 8009 ft 160 kts 278°
2026-05-07 22:02 33.35934 -118.29899 8008 ft 160 kts 278°
2026-05-07 22:02 33.36107 -118.31215 8007 ft 160 kts 278°
2026-05-07 22:02 33.36280 -118.32533 8007 ft 161 kts 278°
2026-05-07 22:03 33.36451 -118.33856 8009 ft 160 kts 278°
2026-05-07 22:03 33.36623 -118.35171 8011 ft 160 kts 279°
2026-05-07 22:03 33.36795 -118.36492 8011 ft 160 kts 278°
2026-05-07 22:03 33.36964 -118.37807 8009 ft 160 kts 278°
2026-05-07 22:04 33.37134 -118.39110 8012 ft 160 kts 278°
2026-05-07 22:04 33.37308 -118.40428 8014 ft 160 kts 279°
2026-05-07 22:04 33.37594 -118.41714 8005 ft 161 kts 298°
2026-05-07 22:04 33.38346 -118.42702 8000 ft 163 kts 323°
2026-05-07 22:05 33.39280 -118.43462 8003 ft 163 kts 324°
2026-05-07 22:05 33.40215 -118.44242 8006 ft 163 kts 323°
2026-05-07 22:05 33.41140 -118.45019 8006 ft 163 kts 323°
2026-05-07 22:05 33.42070 -118.45794 8007 ft 163 kts 323°
2026-05-07 22:06 33.43000 -118.46571 8007 ft 163 kts 323°
2026-05-07 22:06 33.43926 -118.47345 8007 ft 162 kts 323°
2026-05-07 22:06 33.44854 -118.48121 8006 ft 162 kts 323°
2026-05-07 22:06 33.45778 -118.48891 8005 ft 162 kts 323°
2026-05-07 22:07 33.46702 -118.49664 8005 ft 162 kts 323°
2026-05-07 22:07 33.47622 -118.50436 8007 ft 162 kts 323°
2026-05-07 22:07 33.48541 -118.51207 8007 ft 161 kts 323°
2026-05-07 22:07 33.49463 -118.51979 8006 ft 161 kts 323°
2026-05-07 22:08 33.50384 -118.52751 8005 ft 162 kts 323°
2026-05-07 22:08 33.51295 -118.53513 8004 ft 162 kts 323°
2026-05-07 22:08 33.52215 -118.54284 8004 ft 162 kts 323°
2026-05-07 22:08 33.53140 -118.55060 8004 ft 162 kts 323°
2026-05-07 22:09 33.54061 -118.55832 8005 ft 161 kts 323°
2026-05-07 22:09 33.54983 -118.56606 8006 ft 161 kts 323°
2026-05-07 22:09 33.55901 -118.57376 7998 ft 162 kts 323°
2026-05-07 22:09 33.56827 -118.58153 7997 ft 162 kts 323°
2026-05-07 22:10 33.57748 -118.58926 7996 ft 162 kts 323°
2026-05-07 22:10 33.58672 -118.59701 7995 ft 162 kts 323°
2026-05-07 22:10 33.59583 -118.60467 7995 ft 162 kts 323°
2026-05-07 22:10 33.60503 -118.61249 7995 ft 162 kts 322°
2026-05-07 22:11 33.61419 -118.62040 7995 ft 162 kts 322°
2026-05-07 22:11 33.62331 -118.62824 7995 ft 162 kts 322°
2026-05-07 22:11 33.63246 -118.63609 7996 ft 162 kts 322°
2026-05-07 22:11 33.64163 -118.64396 7996 ft 162 kts 322°
2026-05-07 22:12 33.65078 -118.65182 7996 ft 162 kts 322°
2026-05-07 22:12 33.65996 -118.65971 7995 ft 162 kts 322°
2026-05-07 22:12 33.66913 -118.66759 7988 ft 162 kts 322°
2026-05-07 22:12 33.67829 -118.67546 7989 ft 162 kts 322°
2026-05-07 22:13 33.68746 -118.68335 7990 ft 162 kts 322°
2026-05-07 22:13 33.69663 -118.69123 7990 ft 162 kts 322°
2026-05-07 22:13 33.70576 -118.69911 7990 ft 162 kts 322°
2026-05-07 22:13 33.71496 -118.70700 7989 ft 162 kts 322°
2026-05-07 22:14 33.72410 -118.71487 7990 ft 161 kts 322°
2026-05-07 22:14 33.73321 -118.72272 7992 ft 161 kts 322°
2026-05-07 22:14 33.74224 -118.73049 7992 ft 162 kts 322°
2026-05-07 22:14 33.75140 -118.73832 7991 ft 162 kts 323°
2026-05-07 22:15 33.76058 -118.74611 7991 ft 162 kts 323°
2026-05-07 22:15 33.76977 -118.75390 7992 ft 162 kts 323°
2026-05-07 22:15 33.77897 -118.76174 7993 ft 162 kts 323°
2026-05-07 22:15 33.78817 -118.76959 7992 ft 162 kts 323°
2026-05-07 22:16 33.79736 -118.77742 7992 ft 162 kts 323°
2026-05-07 22:16 33.80654 -118.78525 7991 ft 162 kts 323°
2026-05-07 22:16 33.81573 -118.79307 7992 ft 162 kts 323°
2026-05-07 22:16 33.82492 -118.80090 7987 ft 162 kts 323°
2026-05-07 22:17 33.83410 -118.80875 7985 ft 162 kts 323°
2026-05-07 22:17 33.84327 -118.81656 7987 ft 162 kts 323°
2026-05-07 22:17 33.85251 -118.82444 7987 ft 162 kts 323°
2026-05-07 22:17 33.86156 -118.83217 7988 ft 162 kts 323°
2026-05-07 22:18 33.87073 -118.83999 7985 ft 162 kts 323°
2026-05-07 22:18 33.89713 -118.86255 7987 ft 162 kts 323°
2026-05-07 22:19 33.90624 -118.87033 7987 ft 162 kts 323°
2026-05-07 22:19 33.91545 -118.87821 7987 ft 162 kts 323°
2026-05-07 22:19 33.92462 -118.88606 7987 ft 162 kts 323°
2026-05-07 22:19 33.93381 -118.89392 7987 ft 162 kts 323°
2026-05-07 22:20 33.94299 -118.90178 7987 ft 162 kts 323°
2026-05-07 22:20 33.95216 -118.90962 7986 ft 162 kts 323°
2026-05-07 22:20 33.96136 -118.91748 7986 ft 162 kts 323°
2026-05-07 22:20 33.97054 -118.92535 7986 ft 162 kts 323°
2026-05-07 22:21 33.97970 -118.93321 7985 ft 162 kts 323°
2026-05-07 22:21 33.98885 -118.94104 7985 ft 162 kts 323°
2026-05-07 22:21 33.99801 -118.94890 7986 ft 162 kts 323°
2026-05-07 22:21 34.00708 -118.95667 7987 ft 162 kts 322°
2026-05-07 22:22 34.01625 -118.96453 7987 ft 162 kts 322°
2026-05-07 22:22 34.02544 -118.97242 7987 ft 162 kts 322°
2026-05-07 22:22 34.03462 -118.98029 7987 ft 162 kts 322°
2026-05-07 22:22 34.04378 -118.98816 7987 ft 162 kts 322°
2026-05-07 22:23 34.05297 -118.99604 7988 ft 162 kts 322°
2026-05-07 22:23 34.06217 -119.00394 7988 ft 162 kts 322°
2026-05-07 22:23 34.07135 -119.01184 7995 ft 163 kts 322°
2026-05-07 22:23 34.08072 -119.01989 7995 ft 165 kts 322°
2026-05-07 22:24 34.09010 -119.02792 7994 ft 165 kts 322°
2026-05-07 22:24 34.09949 -119.03601 7995 ft 165 kts 322°
2026-05-07 22:24 34.10882 -119.04403 7996 ft 164 kts 322°
2026-05-07 22:24 34.11722 -119.05291 7995 ft 162 kts 304°
2026-05-07 22:25 34.12328 -119.06437 7992 ft 161 kts 301°
2026-05-07 22:25 34.12948 -119.07559 7992 ft 161 kts 302°
2026-05-07 22:25 34.13575 -119.08688 7991 ft 161 kts 302°
2026-05-07 22:25 34.14195 -119.09809 7992 ft 160 kts 302°
2026-05-07 22:26 34.14813 -119.10930 7992 ft 161 kts 302°
2026-05-07 22:26 34.15426 -119.12040 7993 ft 161 kts 302°
2026-05-07 22:26 34.16044 -119.13163 7995 ft 160 kts 302°
2026-05-07 22:26 34.16665 -119.14290 7992 ft 161 kts 302°
2026-05-07 22:27 34.17285 -119.15416 7990 ft 161 kts 302°
2026-05-07 22:27 34.17908 -119.16548 7992 ft 161 kts 302°
2026-05-07 22:27 34.18527 -119.17675 7992 ft 161 kts 302°
2026-05-07 22:27 34.19147 -119.18807 7989 ft 161 kts 302°
2026-05-07 22:28 34.19768 -119.19934 7986 ft 161 kts 302°
2026-05-07 22:28 34.20387 -119.21057 7987 ft 161 kts 302°
2026-05-07 22:28 34.21009 -119.22187 7987 ft 162 kts 302°
2026-05-07 22:28 34.21635 -119.23318 7989 ft 162 kts 302°
2026-05-07 22:29 34.22259 -119.24458 7990 ft 163 kts 302°
2026-05-07 22:29 34.22883 -119.25597 7991 ft 163 kts 302°
2026-05-07 22:29 34.23500 -119.26721 7990 ft 162 kts 302°
2026-05-07 22:29 34.24121 -119.27855 7988 ft 161 kts 302°
2026-05-07 22:30 34.24744 -119.28989 7988 ft 161 kts 302°
2026-05-07 22:30 34.25360 -119.30113 7989 ft 160 kts 302°
2026-05-07 22:30 34.25977 -119.31237 7989 ft 160 kts 302°
2026-05-07 22:30 34.26592 -119.32358 7988 ft 160 kts 302°
2026-05-07 22:31 34.27206 -119.33482 7987 ft 160 kts 302°
2026-05-07 22:31 34.27824 -119.34609 7985 ft 160 kts 302°
2026-05-07 22:31 34.28439 -119.35731 7985 ft 160 kts 302°
2026-05-07 22:31 34.29053 -119.36854 7985 ft 160 kts 302°
2026-05-07 22:32 34.29663 -119.37968 7985 ft 160 kts 302°
2026-05-07 22:32 34.30278 -119.39091 7985 ft 160 kts 302°
2026-05-07 22:32 34.30892 -119.40214 7985 ft 160 kts 302°
2026-05-07 22:32 34.31469 -119.41364 7984 ft 160 kts 291°
2026-05-07 22:33 34.31606 -119.42684 7986 ft 159 kts 265°
2026-05-07 22:33 34.31487 -119.44044 7817 ft 163 kts 264°
2026-05-07 22:33 34.31388 -119.45274 7585 ft 135 kts 264°
2026-05-07 22:33 34.31301 -119.46339 7331 ft 121 kts 264°
2026-05-07 22:34 34.31223 -119.47322 7079 ft 113 kts 264°
2026-05-07 22:34 34.31151 -119.48245 6853 ft 108 kts 265°
2026-05-07 22:34 34.31080 -119.49158 6684 ft 120 kts 264°
2026-05-07 22:34 34.30996 -119.50258 6502 ft 141 kts 265°
2026-05-07 22:35 34.30909 -119.51491 6310 ft 152 kts 265°
2026-05-07 22:35 34.30814 -119.52792 6102 ft 158 kts 265°
2026-05-07 22:35 34.30722 -119.54086 5791 ft 147 kts 268°
2026-05-07 22:35 34.31004 -119.55217 5449 ft 139 kts 296°
2026-05-07 22:36 34.31452 -119.56217 5122 ft 136 kts 296°
2026-05-07 22:36 34.31896 -119.57222 4784 ft 133 kts 296°
2026-05-07 22:36 34.32331 -119.58206 4472 ft 131 kts 296°
2026-05-07 22:36 34.32756 -119.59175 4167 ft 130 kts 296°
2026-05-07 22:37 34.33176 -119.60139 3864 ft 129 kts 296°
2026-05-07 22:37 34.33595 -119.61100 3564 ft 129 kts 296°
2026-05-07 22:37 34.34012 -119.62058 3264 ft 128 kts 296°
2026-05-07 22:37 34.34425 -119.63015 2958 ft 128 kts 296°
2026-05-07 22:38 34.34835 -119.63966 2716 ft 124 kts 296°
2026-05-07 22:38 34.35223 -119.64854 2559 ft 119 kts 296°
2026-05-07 22:38 34.35609 -119.65730 2397 ft 117 kts 296°
2026-05-07 22:38 34.35995 -119.66592 2238 ft 116 kts 296°
2026-05-07 22:39 34.36386 -119.67452 2086 ft 120 kts 296°
2026-05-07 22:39 34.36825 -119.68413 1970 ft 138 kts 297°
2026-05-07 22:39 34.37309 -119.69453 1977 ft 147 kts 297°
2026-05-07 22:39 34.37830 -119.70568 1972 ft 156 kts 297°
2026-05-07 22:40 34.38372 -119.71730 1972 ft 160 kts 297°
2026-05-07 22:40 34.38910 -119.72889 1973 ft 155 kts 297°
2026-05-07 22:40 34.39434 -119.74018 1965 ft 152 kts 297°
2026-05-07 22:40 34.39957 -119.75138 1813 ft 151 kts 296°
2026-05-07 22:41 34.40443 -119.76246 1597 ft 148 kts 295°
2026-05-07 22:41 34.40897 -119.77281 1447 ft 132 kts 296°
2026-05-07 22:41 34.41336 -119.78196 1232 ft 120 kts 296°
2026-05-07 22:41 34.41766 -119.79076 997 ft 124 kts 297°
2026-05-07 22:42 34.42224 -119.80001 763 ft 127 kts 296°
2026-05-07 22:42 34.42605 -119.80965 523 ft 125 kts 286°
2026-05-07 22:42 34.42790 -119.81956 315 ft 115 kts 272°
2026-05-07 22:42 34.42803 -119.82865 126 ft 102 kts 266°
2026-05-07 22:43 34.42787 -119.83677 24 ft 90 kts 266°
2026-05-07 22:43 34.42774 -119.84332 18 ft 62 kts 268°
2026-05-07 22:43 34.42770 -119.84598 15 ft 20 kts 287°
2026-05-07 22:43 34.42838 -119.84573 16 ft 12 kts 63°
2026-05-07 22:44 34.42870 -119.84495 17 ft 7 kts 65°
2026-05-07 22:44 34.42892 -119.84438 17 ft 9 kts 63°
2026-05-07 22:44 34.42935 -119.84440 16 ft 6 kts 289°
2026-05-07 22:44 34.42933 -119.84452 17 ft 0 kts 243°